[ hide orbit diagram ]
For accurate long-term ephemerides, please instead use our Horizons system.This orbit viewer was implemented using two-body methods, and hence should not be used for determining accurate long-term trajectories (over several years or decades) or planetary encounter circumstances.
Orbital Elements at Epoch 2459000.5 (2020-May-31.0) TDB
Reference: JPL 23 (heliocentric ecliptic J2000)
Element | Value | Uncertainty (1-sigma) | Units |
e | .1595340836961724 | 3.887e-08 | |
a | 2.386916813158953 | 9.3284e-09 | au |
q | 2.006122226512652 | 9.335e-08 | au |
i | 2.414874283067728 | 4.9334e-06 | deg |
node | 179.8232550604686 | 9.0463e-05 | deg |
peri | 224.4518538540142 | 9.1537e-05 | deg |
M | 342.1178195113634 | 1.4538e-05 | deg |
tp | 2459067.407118353021 (2020-Aug-05.90711835) | 5.4533e-05 | TDB |
period | 1346.958924969668 3.69 | 7.8961e-06 2.162e-08 | d yr |
n | .2672687290802923 | 1.5668e-09 | deg/d |
Q | 2.767711399805255 | 1.0817e-08 | au |
|
| | Orbit Determination Parameters
Additional Information
|
[ show covariance matrix ]
Physical Parameter Table
Parameter |
Symbol |
Value |
Units |
Sigma |
Reference |
Notes |
absolute magnitude |
H |
15.5 |
|
n/a |
MPO435844 |
|
diameter |
diameter |
4.696 |
km |
0.039 |
urn:nasa:pds:neowise_diameters_albedos::2.0[mainbelt] (http://adsabs.harvard.edu/abs/2011ApJ...741...68M) |
|
geometric albedo |
albedo |
0.083 |
|
0.015 |
urn:nasa:pds:neowise_diameters_albedos::2.0[mainbelt] (http://adsabs.harvard.edu/abs/2011ApJ...741...68M) |
|
|
15470 (1999 BS) Discovered 1999-Jan-16 by Korlevic, K. at Visnjan |
Reference: 20000621/Numbers.arc | Last Updated: 2004-04-19 |
|
[ show close-approach data ]
Alternate Designations
1999 BS = 1979 SW8 = 1981 EL39 |
|
|